Vertical_Velocity
1 1 -1 -1 -14 -8 -1 0 0 -3 -6 2 0 -1 -1 4 1 -4 1 1 2 3 1 0 -1 -2 -2 4 1 2 0 7 12 10 2 7 1 -0 2 -2 -0 4 5 3 -1 2 -1 -1 -1
-2 -2 -0 -2 -10 -2 -4 -0 -0 1 2 3 4 3 -4 1 3 1 5 -1 -1 -1 2 1 0 1 -2 2 3 -1 3 -3 6 12 10 4 5 3 -1 1 -1 1 2 3 2 4 0 -2 1
-1 -2 -4 -4 -1 -2 -2 0 -1 -2 1 -2 0 0 1 1 3 -0 3 1 1 1 1 1 1 1 -1 -5 3 6 1 3 -3 2 11 10 6 2 1 -0 -1 -1 2 1 2 1 1 -3 1
-2 -3 -2 -8 0 0 0 -1 1 -3 2 1 2 -2 1 7 3 4 2 1 0 -3 0 -1 -0 -0 -0 -0 0 1 7 1 -2 2 -3 15 8 6 1 1 0 -2 1 3 1 2 0 -1 -2
-3 -2 -3 -1 0 0 0 1 1 -0 1 -1 1 2 -0 4 1 1 4 1 -1 -3 -3 -0 -0 -1 -1 -2 -11 -7 -2 5 2 1 -0 -2 16 6 1 1 -0 1 0 2 3 1 1 1 -1
-5 -1 -4 -0 -0 0 -0 0 2 0 1 -1 -5 -0 2 5 4 -1 0 -1 -1 1 -2 -4 -2 0 0 1 -1 -1 -7 -3 4 1 2 -0 6 16 2 -0 0 0 0 -0 3 2 1 -0 1
-6 -3 -1 0 0 0 -0 1 -0 1 0 -1 4 -1 4 3 1 -1 -1 1 0 -2 -1 -1 -4 -5 -0 -1 -1 -0 -2 -5 -3 6 1 -2 4 17 9 4 2 -1 2 -2 1 3 2 -0 1
-3 -6 -1 0 -0 -3 -1 -1 1 -1 -2 3 1 -0 3 -4 -1 1 5 2 -2 -2 -2 -0 2 -3 -3 -2 -2 1 -5 -1 -10 -3 4 -2 7 3 19 7 0 -2 -1 0 -2 2 3 1 0
-1 -7 -0 -1 0 -1 -1 -2 0 2 -1 -1 -0 -2 -4 -1 -1 1 0 -3 -2 -4 -5 -3 -4 -1 -2 -3 -2 -1 -1 -1 -1 -6 -3 7 3 7 19 7 9 5 5 -0 -2 1 0 2 2
-8 -3 -1 -1 0 -0 -1 1 0 -2 -3 0 1 1 0 1 1 1 -2 -2 -1 -3 -3 -5 -3 -6 -3 -4 -2 -2 -1 -4 -2 -1 -5 5 4 4 0 10 11 15 -1 12 1 1 -1 3 2
0 -2 -0 -0 0 -0 0 -2 1 1 -1 -4 -1 -1 0 -1 -0 0 -2 -3 -3 -3 -0 -4 -4 -3 -5 -3 -6 -2 -2 -3 -2 2 -7 0 5 4 9 11 1 18 12 12 8 3 7 -3 1
-5 -0 -0 0 1 -1 -0 1 -1 2 -6 2 1 -3 0 1 1 1 -3 -3 -3 -3 -2 -1 -2 -4 -5 -2 -3 -4 -2 -2 -4 -1 2 -5 -10 -6 13 3 2 8 6 12 7 3 2 -0 -1
-2 -0 0 2 -0 0 2 -3 -2 -7 1 3 -1 -1 -1 1 2 -2 -2 -2 -0 -2 -0 -3 -3 -3 -3 -5 -1 -3 -3 -2 -3 -3 1 6 21 14 19 12 14 5 17 6 1 -0 -2 0 -1
1 1 -1 2 0 1 1 -2 -0 -1 -0 -3 -0 0 1 1 -1 -3 1 -0 -2 -3 -2 -0 -1 0 0 -3 -2 -6 -2 -2 -3 -2 -3 -2 -3 -13 -2 17 -1 4 17 3 2 -4 -5 -1 3
1 -4 -2 0 -1 -0 2 -6 -1 6 -1 3 2 3 2 -1 -4 -3 -1 -2 -0 2 -1 -3 -5 -3 -2 -4 -1 -3 -3 -3 -3 -4 -2 9 -0 8 -20 27 16 2 14 10 7 6 9 6 5
-5 -5 -3 0 -2 0 -5 -8 -4 5 -0 -1 -0 -2 3 -0 -1 -1 1 2 5 -2 -4 -2 -2 -2 -4 -3 -2 -4 -4 -3 -1 -4 1 -8 -6 2 -9 5 24 6 11 7 3 -3 8 7 -2
-5 -2 -0 -8 0 -1 -6 -6 -5 -3 1 -4 -1 -1 -1 2 -1 4 5 4 -1 -1 -4 -5 -7 -4 -7 -6 -2 -4 -2 -2 -2 -1 -3 5 -1 2 -23 -19 20 25 31 12 -2 5 2 4 1
-1 -1 -2 -1 -5 -1 -3 -7 -7 -3 4 -3 -0 -0 2 2 1 8 3 0 2 2 -2 -5 -6 -7 -6 -6 -3 -0 -2 -1 -2 -2 -2 -2 2 6 20 -4 3 8 17 3 13 2 12 0 -1
0 1 0 -3 -2 3 0 -1 -5 -5 -1 -0 -1 -1 -1 2 3 1 -1 -1 -3 -3 -3 -1 -5 -6 -3 -9 -7 -2 -6 -3 -1 -1 -4 -0 -7 -4 3 6 -9 28 -8 53 7 -2 -4 -0 6
1 -0 -2 -8 -0 4 -2 -8 -2 -0 -0 1 -0 -1 -1 1 -1 -1 -0 -2 -2 -4 0 -1 -4 -5 -3 -3 -5 -2 -3 -5 -2 -2 0 -2 3 -7 -5 -2 -4 17 -8 50 -2 -7 -7 13 5
-1 -1 -1 -0 -3 -1 2 -6 -3 -3 -0 -1 0 0 -1 -1 -2 -2 -2 0 1 -2 -5 -9 -5 -7 -3 -0 -6 -2 1 -5 -2 -2 -1 -0 -3 5 -3 -5 9 -6 12 14 1 -5 -6 -7 9
0 -1 2 1 -3 -4 -3 -11 -3 -2 -3 0 -1 -1 -2 -1 0 -1 -2 -6 -8 -7 -0 1 -1 -3 -6 0 -1 -4 -0 -4 -3 -4 -4 5 -2 0 5 -3 -9 -3 -7 -13 75 -2 -6 3 -16
-10 2 1 -0 -1 -5 -6 -7 -18 1 -2 -2 -3 -3 -1 -3 -2 -4 -1 5 -5 -13 -13 -12 -11 -7 -3 -5 -4 -3 -4 1 -5 -3 -6 -1 5 -2 -12 0 2 7 -5 -3 17 31 -0 5 -10
-2 -2 -0 -1 -1 -6 -4 -7 -14 -2 -5 -1 -1 -2 -1 -3 -1 3 2 -4 -2 -1 -0 -0 3 -2 -2 1 0 -1 -3 -3 -1 -1 -4 -5 -1 7 3 -11 -7 1 -12 6 0 27 -3 -8 3
-4 -5 -6 -13 -11 -7 -1 -3 -22 -3 -2 -2 -2 -4 -4 -2 -2 -5 -4 -5 -2 -2 0 1 -1 -7 -6 -3 -1 2 -0 1 -2 -1 -2 -4 -5 4 3 4 7 12 -9 25 -5 26 2 -8 -1
2 -5 -7 -3 -2 -5 -2 -6 -26 -3 -1 -2 -1 -0 -0 1 -4 2 -1 -2 -4 -4 -3 0 2 1 -2 -3 -9 -4 -0 -4 -1 -4 -3 -3 -6 -0 5 -2 -2 5 -4 -2 3 16 21 9 4
-4 -6 -5 -6 -1 -3 -5 -13 -11 -1 -2 -1 -5 1 -3 -1 -5 -5 -6 -3 -1 -2 -2 -1 -4 -5 -3 -4 -2 -5 -3 3 -2 -2 -4 1 -2 -5 1 3 4 -3 -4 0 6 3 34 2 1
-8 -5 -10 -5 -5 -3 -5 -2 -12 -4 -3 -2 -2 -4 -4 -8 -3 -4 -6 -2 -2 -2 0 1 0 -3 -0 2 -1 3 -11 -1 0 0 -8 2 -2 -3 -2 -3 -8 0 7 -11 1 -1 35 5 2
-3 -2 -4 -9 -4 -5 -2 -17 -8 -5 -2 -2 -3 -3 -5 -5 -3 -4 -4 -5 -5 -1 -2 -4 -2 0 -2 -1 -5 2 -4 -2 1 -0 -5 0 -0 2 -2 -2 -2 -3 -1 -13 -6 3 13 19 -2
-2 -3 -4 -7 -7 -1 -4 -32 -1 -2 -2 2 -5 -4 -3 -3 -3 -4 -2 -3 -2 1 1 -2 -5 4 1 -2 2 0 1 -3 1 -2 -3 2 -5 2 1 0 -1 -8 -3 3 -6 14 2 20 -2
Height
1507 1507 1508 1509 1520 1527 1530 1528 1528 1528 1527 1527 1522 1522 1528 1530 1530 1537 1539 1538 1536 1534 1532 1529 1526 1522 1521 1520 1519 1520 1522 1523 1527 1528 1528 1528 1528 1530 1532 1534 1535 1537 1537 1538 1539 1541 1543 1544 1545
1508 1509 1509 1509 1530 1537 1537 1533 1535 1534 1532 1527 1527 1526 1527 1536 1536 1536 1538 1537 1535 1534 1532 1529 1525 1523 1519 1519 1518 1518 1520 1522 1523 1527 1528 1528 1529 1530 1532 1533 1535 1537 1538 1539 1540 1542 1543 1546 1547
1509 1510 1512 1521 1540 1538 1539 1538 1537 1532 1532 1528 1529 1529 1533 1536 1538 1539 1538 1537 1536 1534 1532 1529 1526 1521 1520 1518 1517 1516 1517 1519 1521 1521 1526 1529 1529 1530 1531 1533 1535 1537 1539 1540 1541 1543 1544 1546 1548
1510 1512 1517 1528 1531 1539 1541 1540 1537 1533 1529 1529 1531 1534 1538 1539 1539 1539 1539 1537 1536 1534 1531 1528 1525 1522 1518 1518 1516 1515 1514 1516 1519 1521 1521 1526 1529 1529 1531 1533 1535 1537 1539 1541 1542 1544 1544 1546 1549
1512 1514 1529 1535 1536 1540 1541 1541 1538 1535 1534 1533 1532 1538 1540 1541 1540 1541 1540 1537 1534 1532 1531 1528 1524 1522 1519 1515 1514 1513 1513 1513 1515 1518 1520 1520 1527 1529 1530 1532 1534 1536 1540 1542 1543 1544 1546 1547 1549
1514 1519 1535 1537 1537 1541 1540 1539 1537 1537 1536 1535 1535 1537 1542 1542 1540 1539 1539 1537 1534 1530 1528 1526 1523 1520 1519 1516 1513 1512 1511 1512 1512 1515 1516 1519 1520 1526 1528 1531 1533 1535 1538 1542 1544 1545 1546 1548 1550
1517 1526 1537 1538 1539 1540 1540 1539 1539 1539 1536 1536 1537 1538 1541 1540 1540 1539 1538 1536 1533 1530 1527 1523 1521 1519 1517 1515 1513 1510 1510 1510 1510 1510 1513 1516 1518 1523 1525 1528 1531 1534 1537 1540 1544 1545 1547 1549 1551
1521 1526 1538 1547 1545 1538 1542 1541 1542 1542 1540 1538 1536 1538 1540 1541 1541 1541 1537 1534 1531 1529 1526 1522 1518 1516 1514 1512 1510 1508 1507 1506 1507 1507 1509 1512 1516 1518 1523 1525 1528 1531 1534 1538 1542 1545 1548 1549 1552
1524 1536 1545 1541 1542 1542 1544 1544 1542 1541 1541 1541 1540 1540 1540 1541 1540 1539 1536 1532 1529 1527 1526 1522 1518 1514 1512 1510 1508 1507 1506 1505 1504 1505 1505 1508 1511 1514 1518 1522 1525 1528 1532 1535 1540 1544 1547 1550 1553
1527 1541 1542 1543 1544 1543 1542 1542 1541 1541 1541 1541 1540 1540 1540 1540 1539 1536 1531 1529 1527 1525 1523 1521 1518 1514 1511 1509 1506 1504 1504 1503 1502 1501 1502 1501 1505 1509 1512 1518 1524 1527 1527 1533 1537 1541 1545 1550 1553
1535 1543 1544 1543 1543 1544 1542 1542 1541 1541 1539 1537 1539 1539 1539 1538 1536 1533 1530 1529 1527 1525 1523 1520 1517 1513 1511 1507 1504 1502 1500 1500 1499 1497 1498 1498 1498 1502 1508 1513 1519 1523 1526 1530 1535 1539 1543 1547 1552
1541 1544 1543 1544 1545 1545 1542 1540 1539 1539 1537 1537 1536 1538 1538 1535 1534 1532 1529 1528 1526 1524 1521 1518 1516 1513 1509 1506 1503 1500 1498 1496 1495 1495 1492 1494 1494 1494 1495 1504 1512 1517 1521 1526 1529 1536 1541 1546 1551
1541 1541 1542 1543 1542 1540 1541 1537 1539 1534 1534 1533 1535 1535 1536 1535 1532 1530 1528 1527 1525 1522 1519 1516 1513 1511 1507 1503 1501 1498 1496 1494 1493 1491 1491 1488 1487 1478 1479 1494 1506 1511 1517 1521 1526 1531 1538 1543 1548
1543 1544 1544 1542 1544 1543 1542 1539 1538 1533 1532 1531 1532 1532 1533 1532 1530 1529 1527 1525 1523 1520 1518 1514 1512 1509 1506 1502 1499 1496 1493 1491 1490 1489 1488 1486 1486 1480 1486 1485 1499 1507 1512 1516 1522 1528 1533 1540 1546
1546 1547 1546 1546 1547 1547 1542 1539 1535 1532 1531 1530 1531 1531 1529 1530 1528 1526 1525 1523 1522 1519 1516 1512 1509 1507 1504 1500 1496 1494 1491 1487 1487 1485 1485 1484 1481 1485 1480 1482 1490 1501 1509 1513 1519 1524 1531 1538 1545
1553 1554 1557 1548 1547 1545 1547 1543 1531 1531 1530 1529 1527 1527 1528 1528 1527 1524 1523 1522 1520 1516 1513 1511 1508 1505 1502 1498 1494 1491 1489 1484 1483 1482 1481 1481 1483 1480 1480 1478 1485 1494 1501 1507 1513 1520 1528 1534 1541
1566 1577 1569 1557 1549 1550 1549 1542 1530 1530 1528 1523 1522 1524 1524 1524 1523 1523 1522 1520 1518 1515 1513 1509 1505 1502 1499 1496 1492 1489 1485 1482 1479 1478 1477 1477 1475 1476 1479 1478 1480 1488 1493 1502 1507 1515 1522 1529 1537
1577 1580 1570 1567 1551 1550 1547 1540 1530 1524 1522 1518 1519 1520 1521 1522 1522 1522 1520 1517 1516 1514 1511 1507 1503 1499 1494 1492 1488 1484 1482 1478 1475 1473 1472 1471 1471 1468 1475 1472 1476 1484 1485 1495 1502 1507 1517 1524 1531
1578 1584 1580 1564 1554 1554 1545 1540 1526 1520 1517 1515 1513 1513 1518 1521 1520 1517 1516 1514 1513 1510 1506 1502 1497 1494 1489 1486 1482 1477 1474 1472 1471 1470 1468 1468 1469 1473 1469 1473 1472 1477 1480 1489 1497 1499 1509 1519 1527
1573 1580 1576 1557 1554 1558 1547 1534 1524 1518 1515 1514 1512 1512 1515 1517 1517 1515 1514 1511 1508 1504 1499 1495 1491 1488 1484 1480 1477 1473 1469 1467 1465 1464 1464 1463 1464 1464 1462 1468 1473 1471 1478 1481 1490 1492 1504 1515 1521
1567 1573 1579 1576 1558 1555 1553 1535 1528 1517 1514 1513 1512 1514 1513 1513 1512 1511 1509 1506 1502 1498 1493 1488 1484 1481 1477 1473 1469 1467 1463 1460 1458 1458 1458 1457 1457 1459 1463 1464 1468 1472 1471 1479 1480 1486 1495 1506 1518
1580 1566 1570 1568 1574 1581 1564 1563 1533 1520 1517 1513 1512 1511 1511 1510 1509 1507 1504 1500 1495 1490 1486 1481 1477 1473 1470 1466 1462 1460 1456 1452 1452 1451 1450 1451 1452 1454 1451 1455 1460 1467 1469 1478 1477 1480 1489 1499 1507
1569 1566 1568 1567 1584 1588 1572 1592 1527 1522 1515 1510 1507 1506 1506 1507 1506 1503 1498 1494 1488 1483 1478 1473 1468 1463 1459 1456 1454 1451 1448 1446 1444 1443 1442 1443 1445 1447 1451 1450 1451 1459 1463 1467 1470 1474 1482 1493 1501
1568 1567 1565 1571 1579 1593 1589 1586 1535 1520 1512 1506 1504 1503 1504 1503 1501 1498 1494 1487 1480 1475 1468 1463 1459 1455 1451 1447 1444 1441 1439 1439 1437 1435 1435 1435 1436 1439 1444 1449 1447 1450 1460 1464 1464 1472 1473 1487 1498
1575 1577 1583 1567 1576 1570 1581 1584 1527 1508 1505 1504 1501 1498 1499 1499 1497 1492 1485 1479 1472 1465 1459 1455 1450 1445 1443 1440 1436 1432 1430 1428 1427 1427 1427 1427 1428 1430 1434 1437 1440 1441 1451 1456 1461 1469 1469 1480 1489
1589 1599 1606 1589 1588 1577 1575 1577 1514 1502 1499 1499 1497 1495 1493 1492 1488 1482 1476 1468 1461 1455 1450 1445 1439 1433 1431 1429 1425 1424 1421 1418 1417 1418 1419 1418 1419 1420 1425 1428 1432 1433 1445 1453 1459 1462 1466 1475 1483
1587 1601 1601 1628 1635 1633 1573 1548 1508 1496 1493 1492 1492 1491 1487 1484 1478 1471 1464 1458 1450 1444 1438 1433 1427 1422 1418 1414 1413 1410 1409 1408 1407 1407 1410 1410 1411 1412 1415 1421 1419 1425 1438 1447 1452 1455 1458 1468 1476
1590 1597 1605 1624 1607 1586 1560 1576 1524 1501 1490 1487 1486 1484 1482 1476 1468 1461 1455 1447 1441 1433 1426 1421 1417 1411 1406 1403 1400 1398 1397 1396 1396 1396 1398 1399 1403 1405 1407 1409 1416 1425 1429 1438 1446 1450 1455 1460 1468
1598 1608 1610 1613 1622 1619 1612 1520 1501 1493 1485 1486 1479 1479 1475 1467 1460 1451 1443 1436 1428 1421 1416 1410 1403 1397 1393 1389 1386 1384 1384 1384 1384 1385 1387 1389 1393 1397 1400 1407 1411 1414 1419 1431 1439 1444 1451 1453 1460
1588 1594 1597 1601 1614 1635 1634 1549 1486 1484 1481 1479 1475 1471 1467 1462 1453 1444 1435 1425 1418 1410 1405 1399 1392 1385 1381 1376 1373 1370 1371 1371 1372 1373 1376 1380 1384 1386 1392 1398 1403 1407 1414 1425 1434 1438 1444 1446 1453